Regional Weather Roundup
Issued by NWS New Orleans/Baton Rouge, LA

Home | Current Version | Previous Version | Text Only | Print | Product List | Glossary On
Versions: 1 2 3 4 5 6 7 8 9 10 11 12 13 14 15 16 17 18 19 20 21 22 23 24 25 26 27 28 29 30 31 32 33 34 35 36 37 38 39 40 41 42 43 44 45 46 47 48 49 50
000
ASUS44 KLIX 230510
RWRLIX
NEW ORLEANS REGIONAL WEATHER ROUNDUP
NATIONAL WEATHER SERVICE NEW ORLEANS LA
1200 AM CDT WED JUL 23 2014

NOTE: "FAIR" INDICATES FEW OR NO CLOUDS BELOW 12,000 FEET WITH NO
      SIGNIFICANT WEATHER AND/OR OBSTRUCTIONS TO VISIBILITY.
      SKY/WX - SKY CONDITION AND SIGNIFICANT WEATHER.
      TMP - AIR TEMPERATURE.     DP    - DEWPOINT TEMPERATURE.
      RH  - RELATIVE HUMIDITY.   PRES  - PRESSURE.
      HI  - HEAT INDEX.          WCI   - WIND CHILL INDEX.

*  THESE STATIONS ARE NOT NWS OR FAA STATIONS AND ARE NOT UNDER
   NWS QUALITY CONTROL.

LAZ038-040-048-061>063-065>067-069-230600-
SOUTHEAST LOUISIANA

CITY           SKY/WX    TMP DP  RH WIND       PRES   REMARKS
N.O. AUDUBON     N/A     81  73  77 MISG        N/A
N.O. INTL ARPT MOCLDY    78  70  76 E5        30.03S
N.O. LAKEFRONT MOCLDY    79  70  74 E10       30.04S
N.O. DOWNTOWN*   N/A     81  68  65 NE3       30.03F
SLIDELL        MOCLDY    73  69  87 E5        30.04R
BATON ROUGE    MOCLDY    75  72  90 NE7       30.04S
BOOTHVILLE     PTCLDY    78  72  81 SE3       30.04S
BELLE CHASSE   NOT AVBL
BOGALUSA*        N/A     72  68  89 CALM      30.07S FOG
GALLIANO*      NOT AVBL
NEW ROADS*       N/A     73  72  95 CALM      30.04S
GONZALES*        N/A     75  75 100 CALM      30.03S
HAMMOND*       PTCLDY    73  70  88 NE3       30.06F
HOUMA*         PTCLDY    76  71  84 NE3       30.02S
PORT FOURCHON* MOCLDY    82  77  83 SE7       30.04S

$$

MSZ070-080>082-230600-
SOUTHERN MISSISSIPPI

CITY           SKY/WX    TMP DP  RH WIND       PRES   REMARKS
MCCOMB         MOCLDY    70  68  93 SE6       30.07R
GULFPORT       CLEAR     76  69  79 N6        30.03F
BILOXI         CLEAR     75  71  88 NE1       30.04S
PASCAGOULA     PTCLDY    72  71  97 N5        30.05R

$$

COASTAL OBSERVATIONS
LAKE AND NEARSHORE STATIONS

STATION/POSITION TIME  TEMP    WIND        PRES    WAVE
                       AIR SEA DIR/SP/G            HT/PER
                 (UTC) (F)     (DEG/KT/KT) (MB)    (FT/S)
PASCAGOULA       0500   78      20/  3/  4 1016.6
WAVELAND YACHT   0500   76      40/  1/  3 1016.5
GRAND ISLE       0500   82 85  100/  6/  9 1017.4
SOUTHWEST PASS   0500   82 85  190/  4/  5 1017.2
NEW CANAL        0500   79 83   80/  5/  8 1017.5
SHELL BEACH      0500   81 81  100/ 11/ 13 1016.8

OFFSHORE STATIONS

STATION/POSITION TIME  TEMP    WIND        PRES    WAVE
                       AIR SEA DIR/SP/G            HT/PER
                 (UTC) (F)     (DEG/KT/KT) (MB)    (FT/S)
64 S DAUPHIN ISL 0429   82 84  160/  4/  6 1017.7

$$




USA.gov is the U.S. government's official web portal to all federal, state and local government web resources and services.